GFSSE_850_rhum_171.txt.gz
RH
92 94 96 94 84 76 73 68 72 65 62 62 64 62 54 38 30 25 34 35 45 73 52 49 57 52 44 33 34 55 77 87 88 70 52 66 83 76 62 84 93 92 96
90 92 88 88 92 90 80 76 81 79 76 70 70 69 65 49 31 24 45 39 36 50 60 72 73 58 48 39 36 43 63 82 80 70 60 57 82 74 65 76 87 90 96
84 81 88 90 86 93 89 87 80 76 72 75 71 72 72 62 42 28 49 55 38 51 90 95 81 55 50 44 42 40 47 56 57 60 79 87 94 74 69 63 88 87 91
84 98 96 79 82 90 91 92 93 85 79 75 76 71 80 78 69 39 34 66 73 77 81 89 75 62 54 49 46 45 43 45 52 68 83 78 82 63 58 69 70 84 88
88 98 84 80 84 92 93 93 94 92 87 82 78 77 75 82 85 80 45 36 67 76 84 82 83 76 62 55 49 48 45 45 49 76 84 85 83 71 79 86 80 80 90
73 82 78 74 79 85 92 94 95 92 89 87 84 82 80 81 84 91 86 61 35 63 76 83 85 83 76 64 55 52 49 46 49 88 85 87 85 81 90 97 87 75 84
62 77 74 70 68 82 90 96 96 96 94 91 89 86 83 79 78 83 87 87 80 51 56 71 79 85 83 74 62 56 54 50 48 83 83 82 88 85 66 87 86 83 92
62 67 74 67 70 77 93 97 99 98 97 94 91 91 91 88 85 82 85 85 84 87 78 53 68 76 79 79 70 62 58 57 51 76 83 85 88 74 61 66 89 90 78
60 64 64 72 70 66 68 79 82 86 89 89 91 93 90 87 86 84 85 85 85 87 89 87 74 64 75 79 77 70 64 60 59 86 81 87 84 59 79 67 91 91 93
45 50 54 56 62 60 60 60 61 63 66 65 73 79 83 89 89 89 88 90 87 88 86 85 86 84 72 74 82 82 73 68 62 65 88 83 80 62 72 79 85 85 86
36 31 30 31 34 45 50 53 59 59 61 62 58 59 62 68 74 79 86 88 86 84 87 88 87 86 88 78 73 80 86 80 83 82 84 85 74 48 53 74 80 85 86
38 30 27 26 25 24 25 25 27 31 39 42 46 51 56 56 60 64 71 78 78 79 82 80 80 83 90 91 89 86 85 78 97 91 84 83 78 49 46 50 63 82 85
32 25 24 23 22 21 21 20 20 21 21 22 23 24 30 38 45 52 55 59 67 72 83 83 83 86 86 92 98 92 94 95 92 87 84 84 77 52 43 45 53 60 60
22 19 18 16 16 16 15 16 16 16 15 14 16 16 16 19 22 26 40 48 57 70 85 74 84 89 91 94 98 99 95 95 95 88 83 85 85 67 49 43 46 64 73
18 22 18 18 19 20 20 21 21 22 22 22 20 21 21 20 20 24 30 34 36 48 62 76 89 94 94 92 93 94 94 96 97 95 88 86 85 79 61 50 44 48 70
23 21 20 23 24 26 27 29 32 34 35 34 32 30 29 29 27 27 30 28 30 34 36 49 68 81 90 89 88 95 95 95 96 96 96 92 95 87 78 61 51 46 55
24 23 27 28 33 36 40 39 39 38 37 38 39 40 42 45 42 38 38 36 34 38 42 40 42 54 75 85 89 91 91 95 92 94 94 95 94 97 84 78 64 54 47
23 28 31 36 41 43 37 32 26 22 22 25 28 29 31 38 49 53 52 47 46 54 51 49 48 46 45 56 72 87 97 98 93 94 96 95 97 100 98 91 80 70 55
23 29 35 41 42 32 24 19 14 12 9 9 8 10 17 25 39 55 63 66 72 73 68 62 57 52 52 50 52 62 73 85 87 89 89 90 95 97 98 98 96 81 72
31 32 40 44 41 35 27 19 14 11 10 7 10 12 8 13 29 49 61 72 84 82 78 75 71 67 60 59 55 51 53 64 73 82 86 83 82 80 95 95 100 98 85
48 42 50 47 39 29 23 20 15 10 7 7 6 6 21 18 23 35 45 83 95 93 86 80 76 73 68 65 63 63 64 53 52 66 79 87 84 67 77 84 88 99 97
74 56 51 50 40 30 25 21 13 8 7 7 9 12 8 10 14 20 41 61 91 96 95 90 85 81 77 68 65 65 64 64 60 58 50 41 45 73 80 75 84 95 98
74 70 57 43 41 34 28 21 13 10 10 16 17 7 11 53 74 79 84 89 93 96 99 98 92 88 86 81 73 68 66 62 58 52 45 50 55 61 66 79 71 74 74
70 75 50 45 44 36 29 21 13 10 7 6 7 11 51 77 74 67 70 71 93 99 97 97 94 89 88 86 81 75 71 72 74 72 58 49 51 53 68 78 86 89 88
64 49 46 44 40 37 31 22 15 10 6 6 9 38 72 78 72 68 71 73 96 98 99 99 98 95 92 87 81 81 78 75 76 76 78 74 68 58 52 69 66 64 72
39 42 41 40 41 39 31 25 16 10 6 6 10 44 75 75 69 68 68 72 85 99 98 98 99 98 96 93 89 84 82 79 76 73 73 72 72 73 73 66 60 67 73

GFSSE_850_rhum_177.txt.gz
RH
86 87 88 84 86 76 69 64 68 66 67 67 65 65 61 45 30 26 39 37 56 82 58 54 54 47 42 38 39 56 61 59 48 43 46 74 70 61 75 84 91 96 95
92 93 80 81 80 86 86 76 73 74 69 70 68 67 68 58 39 26 44 45 39 43 78 76 56 54 47 43 42 41 46 50 47 67 75 64 77 54 73 85 91 89 94
99 97 93 82 84 82 88 90 87 79 76 75 76 72 72 78 69 40 34 56 50 44 87 91 90 67 56 50 46 44 43 45 57 82 85 82 80 51 47 79 88 91 93
94 94 91 86 75 79 84 87 90 90 85 80 80 78 76 77 83 84 57 40 64 69 79 85 86 84 73 60 52 46 45 44 64 85 86 83 84 70 38 48 82 84 85
83 86 80 80 74 79 86 86 88 88 89 87 85 80 78 74 77 81 86 80 48 42 64 82 83 84 81 73 62 51 48 45 52 77 83 88 80 76 69 55 51 80 88
61 71 75 74 72 72 78 84 88 90 90 89 86 84 81 78 76 74 78 84 82 73 49 61 75 78 80 78 72 63 52 50 48 68 79 87 87 75 78 88 71 58 82
56 55 66 68 68 65 62 76 84 88 89 88 87 84 84 84 83 82 77 78 82 81 80 74 58 56 67 73 72 69 61 54 51 65 76 85 82 76 68 75 86 75 58
57 57 58 58 66 63 66 70 78 88 83 87 79 74 79 81 82 84 82 80 77 78 81 80 82 78 67 64 66 68 67 62 56 52 77 84 85 75 66 62 57 73 71
46 48 52 56 57 65 69 65 63 67 70 70 71 69 70 71 70 78 79 78 83 83 79 79 78 80 79 78 71 65 64 67 64 59 62 78 86 85 73 54 48 44 76
44 41 39 38 41 46 53 58 58 59 59 60 61 61 64 64 67 75 84 77 88 86 88 86 82 82 82 80 78 78 72 69 64 65 62 63 76 88 84 72 51 50 72
45 42 37 33 29 27 28 27 29 33 37 46 52 57 60 61 60 60 62 61 63 77 84 86 87 87 89 90 86 84 86 80 73 68 66 67 70 73 81 75 59 58 59
45 40 35 30 28 26 24 23 24 24 23 23 24 25 27 30 38 48 56 58 57 56 60 67 81 88 89 93 90 87 85 84 83 81 78 76 73 75 83 80 74 48 70
40 37 35 29 24 20 18 17 17 16 16 15 15 15 16 17 18 21 25 30 32 42 51 57 62 71 81 90 95 95 92 93 91 88 87 86 83 82 87 85 79 60 45
32 33 31 24 18 16 15 15 15 15 16 16 17 18 19 19 19 17 17 16 17 29 43 52 59 62 81 80 80 90 92 91 92 92 84 84 85 80 84 88 86 83 53
29 28 28 21 19 18 18 20 21 23 26 28 30 32 34 34 32 29 26 25 22 21 26 34 47 58 69 78 80 77 80 90 98 98 90 87 87 89 91 87 88 86 82
28 28 26 27 26 22 22 23 29 35 36 36 33 31 32 35 38 40 39 39 38 33 27 25 23 23 46 58 66 79 77 79 81 87 93 89 88 90 88 93 91 89 86
21 25 25 28 24 26 29 32 37 34 28 22 18 16 18 18 18 21 22 22 26 33 40 39 34 32 29 24 28 62 72 83 84 83 83 84 91 89 89 96 93 85 89
20 22 27 28 22 26 33 38 32 24 19 15 13 11 9 10 12 10 8 11 18 26 36 42 45 45 43 41 38 31 31 54 68 72 75 78 67 83 90 91 93 94 96
21 26 31 29 24 25 37 39 34 28 23 19 14 10 8 9 7 7 7 7 10 16 31 48 54 63 59 58 56 53 47 41 38 49 66 85 81 74 73 86 93 93 96
36 40 39 36 34 36 43 38 29 21 16 12 9 9 8 8 8 7 6 6 8 12 17 32 54 64 77 78 75 72 65 60 55 46 42 51 60 69 69 73 73 79 86
47 44 41 38 44 48 47 37 27 20 15 10 9 10 9 7 7 9 17 39 52 52 46 44 63 85 82 82 81 74 71 70 67 64 58 51 51 58 68 72 68 50 47
36 36 38 42 48 45 39 42 33 26 17 10 8 8 7 8 15 33 52 47 42 43 49 61 63 86 94 85 90 88 83 74 65 67 66 66 67 65 64 62 62 56 54
60 64 58 56 55 47 39 35 33 29 21 12 9 6 7 12 31 57 58 51 48 49 50 63 73 81 87 82 86 90 84 75 74 69 66 68 67 65 62 62 63 64 68
54 50 54 49 43 41 41 38 34 29 24 16 10 7 7 18 37 66 60 55 49 49 54 66 79 87 87 83 78 83 89 91 91 80 76 68 65 65 62 59 58 61 63
42 41 42 39 39 39 41 40 36 33 30 20 12 8 9 19 33 69 64 56 51 54 58 66 87 90 87 87 90 91 88 86 78 84 84 78 69 69 69 64 55 55 57
44 42 31 30 34 40 41 40 40 39 34 25 15 9 8 13 23 63 75 67 63 64 63 74 93 96 96 98 98 99 95 95 90 93 93 86 82 62 61 55 51 43 39

GFSSE_850_rhum_180.txt.gz
RH
85 88 87 87 89 79 71 68 66 67 68 67 66 68 62 46 30 30 40 43 68 72 53 57 54 46 41 39 42 58 57 52 44 44 60 69 58 64 77 89 94 95 94
90 89 81 84 84 87 87 79 74 74 73 71 69 69 71 63 43 28 45 46 44 47 80 78 58 56 50 44 41 42 47 46 56 66 61 67 58 53 74 86 95 88 92
92 96 97 86 85 81 87 86 86 80 76 76 74 73 72 80 72 51 32 51 52 44 84 90 84 76 64 54 46 43 46 45 67 78 78 81 62 61 47 75 87 88 91
93 93 95 86 81 78 82 85 86 87 87 82 76 78 76 75 76 80 76 44 52 65 75 84 80 79 80 69 58 47 46 46 68 82 85 80 76 75 50 53 73 83 84
88 90 89 83 77 74 83 84 85 87 88 87 85 81 76 74 72 78 79 84 71 45 49 70 78 79 78 78 70 58 48 46 59 71 79 80 73 73 71 55 55 75 80
64 67 74 74 71 68 74 80 84 86 87 87 87 88 86 81 78 78 77 78 81 79 72 52 58 69 74 74 74 68 57 49 47 60 68 73 81 87 76 68 80 56 82
55 51 58 62 64 65 64 62 74 84 88 88 87 87 82 83 87 87 85 81 80 80 81 79 76 65 56 63 70 71 68 58 52 52 67 68 75 84 72 64 75 76 64
54 52 53 54 56 62 65 69 73 81 89 91 74 80 74 74 76 83 82 80 82 83 84 84 84 83 80 71 65 64 67 69 61 55 62 74 71 82 80 61 56 57 71
46 44 45 49 51 56 63 67 65 63 69 73 73 70 76 73 77 76 79 82 75 84 86 87 88 88 85 84 83 77 71 72 72 66 58 69 73 77 88 85 62 50 49
49 47 43 40 38 38 40 45 52 57 58 59 59 60 62 64 65 67 68 68 73 77 89 88 90 91 88 87 89 88 84 81 76 72 70 62 71 76 84 88 82 64 45
48 46 44 39 36 32 28 27 27 26 26 31 38 49 56 58 60 61 60 62 64 62 67 80 90 91 94 93 91 87 88 87 84 82 77 72 69 72 75 82 82 75 52
47 46 40 36 34 31 28 25 24 24 24 24 23 23 24 25 28 35 44 52 56 58 58 58 60 66 77 92 94 94 92 89 89 88 88 84 79 76 73 76 78 81 72
32 37 36 36 33 30 23 18 17 17 17 17 17 17 17 17 17 18 20 24 29 36 39 41 50 56 60 71 84 87 92 96 94 93 92 91 89 90 85 73 78 85 84
30 30 30 30 30 29 21 18 16 17 18 19 21 22 22 22 21 20 19 19 18 17 19 28 37 45 51 57 76 86 87 84 90 99 92 93 83 90 90 84 81 83 87
25 28 29 27 26 23 19 19 20 22 24 27 31 34 36 36 35 35 34 32 30 26 24 22 28 39 49 56 62 72 81 84 85 83 83 88 89 89 96 89 86 81 85
17 21 24 23 22 21 21 20 23 27 33 34 32 28 26 26 25 25 25 26 27 30 35 35 29 25 24 28 37 62 68 73 77 82 83 83 85 90 91 95 95 94 90
22 21 22 24 27 30 24 23 27 34 31 24 20 17 15 14 12 12 12 12 14 16 19 24 32 38 37 33 30 29 34 45 66 75 77 79 81 84 86 88 99 99 95
21 27 27 28 31 29 25 30 36 36 31 26 22 18 15 11 11 11 8 8 10 12 15 21 26 32 39 44 44 40 37 35 34 42 56 68 74 73 66 67 72 90 99
22 30 38 40 37 30 27 30 40 35 26 21 17 14 11 10 8 7 8 9 7 7 8 12 15 26 30 36 45 50 52 53 49 45 41 42 53 66 77 85 77 69 81
30 43 47 41 34 33 33 42 42 33 23 18 14 12 10 10 10 8 7 8 10 18 35 41 38 38 44 53 64 66 63 55 52 52 52 51 46 48 55 66 74 80 80
43 42 40 39 46 49 51 46 37 29 23 19 12 11 14 11 8 7 13 31 52 50 42 44 47 48 51 72 83 74 63 55 52 55 63 62 64 60 52 51 55 63 68
43 47 50 44 48 56 49 44 43 35 27 21 14 10 8 8 9 17 33 52 49 45 46 49 56 61 66 81 82 86 82 68 75 77 75 74 72 71 70 68 67 65 60
38 46 44 47 44 34 45 44 42 38 34 27 20 12 8 7 10 26 48 56 51 49 46 48 55 70 79 76 86 87 86 82 76 71 63 66 69 70 67 64 62 62 64
41 43 38 39 39 43 42 40 44 45 39 33 26 16 9 8 10 19 46 58 54 51 51 57 65 74 88 85 84 78 86 96 98 94 84 74 70 69 67 64 66 66 65
47 46 45 45 38 36 40 42 45 45 45 37 32 22 12 8 9 14 33 62 59 54 57 61 73 86 89 90 89 93 98 92 90 95 96 82 60 55 54 57 54 49 47
44 47 51 52 50 50 49 51 55 54 50 43 38 28 16 10 9 11 18 26 40 56 67 75 80 86 85 94 97 98 98 100 98 100 100 86 81 63 63 54 45 46 46

GFSSE_850_rhum_183.txt.gz
RH
86 88 88 87 89 84 73 70 65 65 65 64 65 66 61 48 30 31 40 43 58 65 59 65 53 47 43 41 57 57 52 45 42 47 60 60 58 75 83 90 90 95 96
85 88 86 85 86 85 89 83 77 75 70 66 66 65 68 65 50 30 43 47 45 48 68 86 59 57 53 47 42 43 46 43 50 57 53 58 50 59 78 92 94 94 92
88 87 92 86 86 84 85 88 87 86 80 75 72 69 66 69 72 62 38 45 56 44 70 90 85 83 74 59 50 44 43 42 48 63 69 71 48 47 55 83 92 85 86
91 94 90 84 82 75 82 88 89 89 90 87 83 78 77 75 69 71 77 66 44 58 67 81 86 81 82 77 63 52 46 43 48 60 64 68 65 61 46 49 77 87 86
80 88 85 83 79 76 79 88 88 90 89 89 88 87 86 82 79 74 76 78 82 66 46 52 70 79 80 80 76 66 53 48 46 56 61 64 63 62 64 54 46 66 79
67 67 68 73 77 73 70 75 83 86 89 88 88 88 86 84 84 84 83 80 79 83 82 74 59 61 68 70 75 76 66 54 50 53 58 62 67 76 76 66 67 68 60
62 56 54 63 65 65 65 66 66 73 84 91 92 89 89 87 89 89 89 89 89 85 84 86 86 81 73 64 66 73 75 68 56 53 61 64 64 68 81 74 56 72 69
59 56 52 54 55 56 60 64 67 68 74 83 90 87 81 74 79 85 86 90 86 90 87 87 86 88 86 86 79 72 71 75 71 61 57 63 68 69 83 86 81 57 53
49 47 47 44 45 48 53 59 64 65 64 67 73 74 72 72 73 74 77 79 80 90 89 90 91 91 89 90 90 88 82 77 74 74 68 61 64 75 75 92 93 79 60
48 45 44 42 41 38 35 34 35 39 48 55 57 58 59 60 62 64 65 68 71 71 81 86 92 94 96 93 95 93 89 86 80 76 75 73 67 70 75 78 88 89 80
46 42 42 42 40 37 34 31 28 27 27 27 27 30 35 47 54 58 59 61 62 63 65 67 71 76 82 88 93 96 95 96 90 85 83 81 79 75 71 73 76 86 83
32 35 39 41 41 37 35 32 27 22 21 22 22 22 23 23 24 26 30 36 44 52 57 58 60 59 60 63 71 87 95 99 99 97 92 89 90 88 81 75 73 75 80
30 30 30 32 32 30 29 28 26 19 18 18 18 17 17 16 16 17 17 18 21 24 28 32 37 43 49 57 64 72 83 90 93 95 98 97 96 90 94 88 87 81 76
28 23 22 25 27 28 28 27 22 19 19 20 21 23 24 24 24 24 23 23 22 21 20 19 19 24 34 42 52 58 71 85 88 86 84 97 99 90 83 92 88 86 81
21 22 21 23 27 29 28 27 24 21 23 27 32 36 35 34 33 31 32 34 36 36 35 31 26 22 22 28 38 47 51 57 68 81 85 82 80 84 88 90 94 95 88
19 19 24 28 30 28 29 30 24 24 26 32 32 28 24 22 20 18 17 17 19 22 24 28 33 37 36 30 26 31 40 53 61 65 70 74 79 78 78 77 88 94 94
23 22 24 31 32 30 31 29 27 29 35 34 29 24 22 20 16 12 12 13 12 11 12 16 21 27 31 37 39 38 34 32 35 47 54 65 70 70 76 81 78 84 93
20 23 25 32 35 38 35 31 30 34 39 34 29 26 23 21 16 14 12 10 9 10 11 10 10 13 21 31 39 43 48 47 40 36 35 37 51 66 70 71 75 76 71
28 31 34 42 46 41 38 36 40 46 39 30 23 17 13 11 11 13 12 11 8 7 7 8 9 18 30 31 31 33 36 39 44 49 49 46 43 41 48 57 67 72 75
46 46 47 46 44 42 40 42 49 45 39 32 24 16 11 10 11 10 10 10 12 21 34 41 43 41 41 41 45 47 45 44 44 42 45 54 60 57 53 49 49 61 69
35 35 36 39 44 51 55 50 34 37 38 37 27 18 13 10 8 7 7 18 34 45 45 40 36 38 40 52 59 65 53 61 60 72 70 66 68 69 72 71 65 55 51
35 34 27 35 41 45 45 43 48 40 35 35 32 24 16 11 8 9 14 26 55 52 48 43 40 42 49 67 75 77 80 73 78 72 74 73 72 71 72 70 69 67 67
42 43 39 42 39 36 36 38 41 44 44 43 37 32 23 13 10 11 23 26 64 57 52 49 50 60 61 76 89 88 88 94 84 75 65 68 69 66 68 71 70 69 69
38 44 44 47 50 50 49 44 45 49 51 50 44 38 30 17 12 14 21 29 63 66 59 56 60 76 84 83 86 89 92 95 96 94 81 69 68 65 62 59 62 64 65
28 33 39 44 48 52 55 55 53 55 57 56 51 44 39 24 14 13 17 27 40 39 61 63 67 82 92 92 94 88 95 98 99 100 99 81 60 60 63 62 58 54 51
36 32 25 25 29 40 46 55 56 59 61 55 54 46 43 30 19 12 14 22 29 30 43 73 77 80 90 96 95 96 97 97 97 99 99 99 90 69 63 53 46 47 52